Regional Weather Roundup
Issued by NWS

Home | Current Version | Previous Version | Graphics & Text | Print | Product List | Glossary On
Versions: 1 2 3 4 5 6 7 8 9 10 11 12 13 14 15 16 17 18 19 20 21 22 23 24 25 26 27 28 29 30 31 32 33 34 35 36 37 38 39 40 41 42 43 44 45 46 47 48 49 50
000
ASUS43 KMKX 232310
RWRWI

WISCONSIN REGIONAL WEATHER ROUNDUP
NATIONAL WEATHER SERVICE MILWAUKEE/SULLIVAN WI
500 PM CST MON JAN 23 2017

NOTE: "FAIR" INDICATES FEW OR NO CLOUDS BELOW 12,000 FEET WITH NO
SIGNIFICANT WEATHER AND/OR OBSTRUCTIONS TO VISIBILITY.

WIZ001-002-006>008-014>016-023>028-240000-
NORTHWEST WISCONSIN

CITY           SKY/WX    TMP DP  RH WIND       PRES   REMARKS
SUPERIOR ARPT  CLOUDY    35  34  94 CALM      29.81R
ASHLAND        CLOUDY    36  34  92 SW6       29.80S WCI  31
HAYWARD        CLOUDY    36  32  85 CALM      29.79S
SIREN          CLOUDY    34  33  96 W3        29.81R
CUMBERLAND     CLOUDY    32  32 100 NW3       29.80R
RICE LAKE      CLOUDY    34  33  96 CALM      29.82R
CHETEK         CLOUDY    34  32  94 CALM      29.80S
LADYSMITH      CLOUDY    35  35  99 W6        29.80S FOG     WCI  30
EAU CLAIRE     CLOUDY    35  33  92 CALM      29.81R
MENOMONIE        N/A    N/A N/A N/A MISG        N/A
NEW RICHMOND   CLOUDY    33  32  96 W5        29.82R FOG     WCI  28
OSCEOLA        CLOUDY    34  34 100 SW3       29.85R
$$

WIZ003>005-009-010-017-018-240000-
NORTH CENTRAL WISCONSIN

CITY           SKY/WX    TMP DP  RH WIND       PRES   REMARKS
MANITOWISH WTR CLOUDY    34  34 100 W3        29.77R FOG
ARBOR VITAE    CLOUDY    37  36  96 CALM      29.76R FOG
WOODRUFF       CLOUDY    37  36  96 CALM      29.76R FOG
RHINELANDER    CLOUDY    37  34  89 W3        29.76R
EAGLE RIVER    CLOUDY    35  35 100 CALM      29.75R
LAND O LAKES   CLOUDY    36  35  96 CALM      29.77R
PHILLIPS       DRIZZLE   34  34 100 CALM      29.77R
TOMAHAWK       CLOUDY    34  33  95 W3        29.77S
MEDFORD        FOG       33  33  99 NW5       29.77S VSB 3/4 WCI  29
MERRILL        CLOUDY    35  35  96 W6          N/A  WCI  30
$$

WIZ029-030-035-036-043>047-240000-
CENTRAL WISCONSIN

CITY           SKY/WX    TMP DP  RH WIND       PRES   REMARKS
WAUSAU         CLOUDY    35  33  92 W8        29.76R WCI  29
MOSINEE        CLOUDY    34  34 100 W5        29.78R WCI  30
MARSHFIELD     CLOUDY    34  33  96 NW8       29.77S FOG     WCI  27
STEVENS POINT  CLOUDY    34  34 100 W3        29.79R
WAUPACA        CLOUDY    39  35  85 CALM      29.78S
WAUTOMA        CLOUDY    36  34  92 NW7       29.79S WCI  30
WISC RAPIDS    CLOUDY    36  35  96 N3        29.79S
CAMP DOUGLAS   CLOUDY    36  36 100 NW5       29.80R WCI  32
$$

WIZ011>013-019>022-031-037>040-048>050-240000-
NORTHEAST WISCONSIN

CITY           SKY/WX    TMP DP  RH WIND       PRES   REMARKS
ANTIGO         CLOUDY    35  33  91 NW5       29.75S WCI  31
SHAWANO        CLOUDY    40  35  85 CALM      29.77S
OCONTO         CLOUDY    36  35  96 CALM      29.78R
STURGEON BAY   FOG       35  35 100 N5        29.77  VSB 1/4 WCI  31
GREEN BAY      CLOUDY    39  36  89 CALM      29.78R
MANITOWOC      CLOUDY    37  35  92 MISG      29.78R
APPLETON       MOCLDY    37  36  93 W6        29.75S WCI  33
CLINTONVILLE   CLOUDY    37  34  87 CALM      29.77S
OSHKOSH        CLOUDY    37  34  89 CALM      29.77S
$$

WIZ032>034-041-042-053>061-240000-
SOUTHWEST WISCONSIN

CITY           SKY/WX    TMP DP  RH WIND       PRES   REMARKS
LA CROSSE      CLOUDY    37  33  85 NW5       29.82R WCI  33
SPARTA         CLOUDY    34  33  98 W3        29.82S FOG
VIROQUA        CLOUDY    34  34 100 NW5       29.79S WCI  30
BOSCOBEL       CLOUDY    38  31  76 NW5       29.82S WCI  34
PRAIRIE DU CHI CLOUDY    37  32  82 W5        29.83R WCI  33
PLATTEVILLE    CLOUDY    37  35  94 NW7       29.81R WCI  31
$$

WIZ056-057-062-063-064-067-068-240000-
SOUTH CENTRAL WISCONSIN

CITY           SKY/WX    TMP DP  RH WIND       PRES   REMARKS
REEDSBURG      CLOUDY    36  34  94 W9        29.80R WCI  29
BARABOO/DELLS  CLOUDY    36  34  92 W5        29.79R WCI  32
LONE ROCK      CLOUDY    38  32  79 NW6       29.81R WCI  33
MINERAL POINT  CLOUDY    36  34  93 W7        29.80R WCI  30
MADISON        CLOUDY    37  35  92 NW6       29.79S WCI  32
MIDDLETON      CLOUDY    38  38 100 NW7       29.79S WCI  33
WATERTOWN      CLOUDY    37  37  99 CALM      29.78R
MONROE         CLOUDY    37  34  87 W7        29.78S WCI  32
JANESVILLE     CLOUDY    41  39  93 NW6       29.78R
$$

WIZ051-052-058>065-066-070>072-240000-
SOUTHEAST WISCONSIN

CITY           SKY/WX    TMP DP  RH WIND       PRES   REMARKS
MILWAUKEE      CLOUDY    42  35  76 NW10      29.76S
WAUKESHA       CLOUDY    36  36 100 NW9       29.78R FOG     WCI  29
MILWAUKEE/TIMM CLOUDY    39  34  81 NW12      29.77R WCI  32
RACINE         CLOUDY    41  35  79 W8        29.77R
KENOSHA        CLOUDY    41  36  82 NW8       29.76R
FOND DU LAC    CLOUDY    37  34  89 W3        29.77S
SHEBOYGAN      MOCLDY    37  34  89 NW9       29.76R WCI  30
WEST BEND      CLOUDY    37  36  93 NW7       29.77S WCI  32
JUNEAU         CLOUDY    36  34  92 CALM      29.78S
$$

LSZ147-162-240000-
LAKE SUPERIOR

STATION/POSITION TIME  TEMP    WIND        PRES    WAVE
                       AIR SEA DIR/SP/G            HT/PER
                 (UTC) (F)     (DEG/KT/KT) (MB)    (FT/S)
DEVILS ISLAND    2300   35     260/  7/  7 1009.6R
PORT WING        2240   37     250/  7/ 11 1009.5R
SAXON HARBOR     2240   35        CALM     1009.1R
$$

LMZ867-665-643>646-240000-
LAKE MICHIGAN

STATION/POSITION TIME  TEMP    WIND        PRES    WAVE
                       AIR SEA DIR/SP/G            HT/PER
                 (UTC) (F)     (DEG/KT/KT) (MB)    (FT/S)
NORTHPORT PIER   2230   34     310/  6/  8 1007.8R
SISTER BAY       2220   36      20/  5/  7   N/A
KEWAUNEE LAKESHO 2248   37     310/  5/  7 1007.7R
SHEBOYGAN LAKESH 2300   39     310/  6/  7 1008.2R
PORT WASHINGTON  2230   41     300/  6/ 10 1008.8R
KENOSHA   LAKESH 2300   41     310/  9/ 12 1007.8
$$

TC  - TEMPERATURE IN CELSIUS
VSB - VISIBILITY IN STATUTE MILES
WCI - WIND CHILL INDEX
HX  - HEAT INDEX





USA.gov is the U.S. government's official web portal to all federal, state and local government web resources and services.